Location: Newark
(48.5797°N, 7.6903°E)
Time: 04:40:07
(UTC+00:00)

Envisat - Visible Passes

Search period start: 24 January 2020 00:00
Search period end: 03 February 2020 00:00
Orbit: 764 x 766 km, 98.1° (Epoch: 23 January)

Date Brightness Start Highest point End Pass type
(mag) Time Alt. Az. Time Alt. Az. Time Alt. Az.
24 Jan 5.6 05:10:44 10° NE 05:14:37 22° E 05:18:28 10° SE visible
24 Jan 5.0 18:08:07 10° SSW 18:12:34 30° W 18:17:02 10° NNW visible
25 Jan 6.5 04:37:01 10° E 04:37:20 10° E 04:37:36 10° E visible
25 Jan 3.4 06:12:10 10° NNE 06:17:17 72° ESE 06:22:20 10° S visible
25 Jan 3.6 17:30:34 10° S 17:35:35 62° W 17:40:39 10° NNW visible
26 Jan 4.8 05:35:40 10° NNE 05:40:20 35° E 05:44:57 10° SSE visible
26 Jan 3.0 16:53:46 10° SSE 16:58:48 67° ENE 17:03:52 10° N visible
26 Jan 5.8 18:34:48 10° SW 18:38:19 19° W 18:41:50 10° NW visible
27 Jan 6.0 04:59:49 10° NE 05:03:11 18° E 05:06:33 10° SE visible
27 Jan 4.6 17:56:30 10° SSW 18:01:11 37° W 18:05:55 10° NNW visible
28 Jan 3.8 06:00:55 10° NNE 06:05:57 58° E 06:10:57 10° S visible
28 Jan 3.2 17:19:12 10° S 17:24:16 76° WSW 17:29:23 10° NNW visible
28 Jan 6.4 19:02:55 10° W 19:04:10 11° W 19:05:26 10° WNW visible
29 Jan 5.2 05:24:33 10° NE 05:28:57 28° E 05:33:19 10° SSE visible
29 Jan 5.5 18:22:55 10° SW 18:26:54 23° W 18:30:53 10° NW visible
30 Jan 6.2 04:49:06 10° NE 04:51:45 14° E 04:54:23 10° ESE visible
30 Jan 3.0 06:26:21 10° NNE 06:31:28 86° WNW 06:36:33 10° SSW visible
30 Jan 4.2 17:44:58 10° S 17:49:50 46° W 17:54:44 10° NNW visible
31 Jan 4.2 05:49:42 10° NNE 05:54:37 47° E 05:59:30 10° S visible
31 Jan 3.0 17:07:53 10° SSE 17:12:58 88° ENE 17:18:05 10° NNW visible
31 Jan 6.2 18:50:09 10° WSW 18:52:42 14° W 18:55:16 10° NW visible
01 Feb 5.6 05:13:30 10° NE 05:17:33 23° E 05:21:34 10° SE visible
01 Feb 5.2 18:11:10 10° SSW 18:15:30 28° W 18:19:51 10° NW visible
02 Feb 6.4 04:38:50 10° ENE 04:40:17 11° E 04:41:44 10° ESE visible
02 Feb 3.3 06:15:03 10° NNE 06:20:10 78° ESE 06:25:15 10° S visible
02 Feb 3.8 17:33:30 10° S 17:38:30 57° W 17:43:31 10° NNW visible
